COSMOS 2499 DEB

Satellite information

Favourite Embed

Satellite Type and Status

DEBRISIN ORBIT

Key statistics

Satellite COSMOS 2499 DEB at a glance.

Uptime

4063

Days in orbit

Revolutions

≈ 13.0

Per day

Orbit

LEO

Low Earth Orbit

Inclination

82.5

Latest

Satellite identification and parameters

Extended collection of information and parameters for COSMOS 2499 DEB.

Object identification

Identified? True

Debris? True

Object name: COSMOS 2499 DEB

International designator: 2014-028F

Object number (NORAD): 49924

Object ID (CCSDS): 49924

Country: COMMONWEALTH OF INDEPENDENT STATES (CIS)

Current information (Y/N): Y

RCS size: SMALL

Orbital parameters

Period: 111.165 minutes

Inclination: 82.4967 deg

SMA: 7658.397 km

Apoapsis: 1496.305 km

Periapsis: 1064.219 km

RAAN: 120.5376 deg

Eccentricy: 0.0282099

Argument of periapsis: 31.7212 deg

Mean anomaly: 330.0552 deg

Mean motion: 12.95376324 rev/day

Mean motion (dot): 0.00001976 rev/day2

B* drag term: 0.0058141 1/REarth

Two-line elements (TLE)

Creation date: July 6, 2025, 2:46 p.m.

Reference frame: TEME

Reference center: EARTH

Epoch: July 4, 2025, 1:43 a.m. UTC

TLE line 0: 0 COSMOS 2499 DEB

TLE line 1: 1 49924U 14028F 25185.07184739 .00001976 00000-0 58141-2 0 9997

TLE line 2: 2 49924 82.4967 120.5376 0282099 31.7212 330.0552 12.95376324173197

Live tracking on map

Real-time ground track for satellite COSMOS 2499 DEB.

In-orbit conjunctions

A list of the most updated potential collisions computed for object COSMOS 2499 DEB.

Target Orbit TCA Probability of collision Miss distance Type
COSMOS 418 LEO 2025-05-31 10:55:44 0.00037351 428.0 (m) PAYLOAD
COSMOS 534 LEO 2024-08-14 10:59:05 0.0001572697 695.0 (m) PAYLOAD

Associated space launch

Classified payload for Russia

COSMOS 2499 DEB was lifted into orbit during the mission ‘Rokot / Briz-KM | 3x Strela-3M (Kosmos 2496, Kosmos 2497, Kosmos 2498) & Kosmos 2499’, on board a Rokot/Briz-KM space rocket.

The launch took place on May 23, 2014, 5:27 a.m. from 133/3 (133L).

For more information about the launch, click the button.

Launch to space Rokot / Briz-KM | 3x Strela-3M (Kosmos 2496, Kosmos 2497, Kosmos 2498) & Kosmos 2499
Rokot / Briz-KM | 3x Strela-3M (Kosmos 2496, Kosmos 2497, Kosmos 2498) & Kosmos 2499

Agency: N/A

Status: Launch Successful

Launch date: May 23, 2014, 5:27 a.m. UTC

Rocket: Rokot/Briz-KM

Launch pad: 133/3 (133L)

Location: Plesetsk Cosmodrome, Russian Federation

...

Latest news about this satellite

There are no fresh news available about this satellite. Check back as we update our databases every day.


Newsletter sign-up

Weekly statistics, charts and insights to help you stay on top of the space industry.